STARLINK-3781 (52272 NORAD) Tracking and Keplerian Element Data

This shows tracking and keplerian element data for the satellite.

Feedback or suggestion? Click here.




ElementValue
Catalog52272
NameSTARLINK-3781
Epoch Orbit130
Epoch Day167.08334491
Epoch Year2022
RAAN106.8198
Inclination53.2173
Eccentricity0.0001774
Argument of Perigee43.5854
Mean Anonmoly85.9895
Mean Motion15.26876841
Decay Rate-0.00726176
L11 52272U 22041M 22167.08334491 -.00726176 00000+0 -29101-1 0 9991
L22 52272 53.2173 106.8198 0001774 43.5854 85.9895 15.26876841 1308

Live tracking and technical data element details for STARLINK-3781 (NORAD 52272). STARLINK-3781 can be tracked NOW for your location showing map with azimuth and elevation plus other details from your city location.

Track the satellite on the map from your city or location and see movement details for azimuth, elevation, latitude, longitude, range, height, and movement on the map or in text.







IsCatalogInMostPopularTable: catalog: 52272, numindb: 1
Update: records affected: 1



GetName: 52272 STARLINK-3781

Hit Count: updated at: Sat, 25 Jun 2022 04:27:53 GMT